Regional Weather Roundup
Issued by NWS

Home | Current Version | Previous Version | Graphics & Text | Print | Product List | Glossary On
Versions: 1 2 3 4 5 6 7 8 9 10 11 12 13 14 15 16 17 18 19 20 21 22 23 24 25 26 27 28 29 30 31 32 33 34 35 36 37 38 39 40 41 42 43 44 45 46 47 48 49 50
080
ASUS43 KBIS 191602
RWRND

NORTH DAKOTA REGIONAL WEATHER ROUNDUP
NATIONAL WEATHER SERVICE BISMARCK ND
1100 AM CDT SAT AUG 19 2017

NOTE: "FAIR" INDICATES FEW OR NO CLOUDS BELOW 12,000 FEET WITH NO
SIGNIFICANT WEATHER AND/OR OBSTRUCTIONS TO VISIBILITY.


NDZ001>003-009>011-017-191700-
NORTHWEST NORTH DAKOTA

CITY           SKY/WX    TMP DP  RH WIND       PRES   REMARKS
WILLISTON      MOSUNNY   72  55  55 S7        29.73S
MINOT          SUNNY     76  57  51 S15       29.71F
MINOT AFB      SUNNY     77  56  47 S12       29.69F
$$

NDZ018>021-031>035-040>046-191700-
SOUTHWEST NORTH DAKOTA

CITY           SKY/WX    TMP DP  RH WIND       PRES   REMARKS
BISMARCK       SUNNY     76  62  62 S9        29.80F
DICKINSON      SUNNY     77  51  40 W12       29.78S
GARRISON         N/A     71  60  68 S10       29.75F
HETTINGER ARPT SUNNY     73  54  51 SW8       29.84S
$$

NDZ004>008-012>016-024-026-027-054-191700-
NORTHEAST NORTH DAKOTA

CITY           SKY/WX    TMP DP  RH WIND       PRES   REMARKS
GRAND FORKS    SUNNY     78  61  55 S10       29.81F
GRND FRKS AFB  SUNNY     79  60  52 SW8       29.81F
DEVILS LAKE    SUNNY     77  57  50 S15       29.80F
$$

NDZ022-023-025-028>030-036>039-047>053-191700-
SOUTHEAST NORTH DAKOTA

CITY           SKY/WX    TMP DP  RH WIND       PRES   REMARKS
FARGO          SUNNY     73  62  68 S12       29.87F
JAMESTOWN      SUNNY     75  63  66 S12       29.83F
$$





USA.gov is the U.S. government's official web portal to all federal, state and local government web resources and services.